Overview Statistics Trail Chart Weather Telemetry Raw packets
 

This is the latest recevied weather packets stored in our database for station/object AI5BL. If no packets are shown the sender has not sent any weather packets the latest 10 day(s).

<< 64 65 66 67 68 69 70 >>
Time Temp. Humidity Pressure Rain* Wind** Luminosity Snow
1788207516 33.89° C 54% 1018.7 hPa 0 mm - 130 W/m² -
1788207214 32.78° C 59% 1018.9 hPa 0 mm - 185 W/m² -
1788206911 33.89° C 60% 1018.9 hPa 0 mm - 180 W/m² -
1788206605 33.33° C 55% 1019.1 hPa 0 mm - 198 W/m² -
1788206301 33.33° C 55% 1019.2 hPa 0 mm - 120 W/m² -
1788205996 33.89° C 54% 1019.2 hPa 0 mm - 79 W/m² -
1788205692 34.44° C 53% 1019.3 hPa 0 mm - 122 W/m² -
1788205387 34.44° C 53% 1019.3 hPa 0 mm - 132 W/m² -
1788205086 35° C 52% 1019.4 hPa 0 mm - 271 W/m² -
1788204781 35° C 51% 1019.4 hPa 0 mm - 677 W/m² -
1788204476 35° C 52% 1019.2 hPa 0 mm - 752 W/m² -
1788204171 34.44° C 55% 1019.5 hPa 0 mm - 815 W/m² -
1788203867 34.44° C 51% 1019.5 hPa 0 mm - 407 W/m² -
1788203563 35° C 52% 1019.5 hPa 0 mm - 773 W/m² -
1788203259 35.56° C 51% 1019.5 hPa 0 mm - 193 W/m² -
1788202958 35° C 51% 1019.5 hPa 0 mm - 888 W/m² -
1788202653 35° C 52% 1019.6 hPa 0 mm - 866 W/m² -
1788202349 34.44° C 53% 1019.8 hPa 0 mm - 818 W/m² -
1788202048 33.89° C 54% 1019.8 hPa 0 mm - 826 W/m² -
1788201744 33.89° C 53% 1019.8 hPa 0 mm - 665 W/m² -
1788201444 34.44° C 52% 1019.9 hPa 0 mm - 252 W/m² -
1788201144 34.44° C 53% 1020 hPa 0 mm - 850 W/m² -
1788200843 33.33° C 55% 1020 hPa 0 mm - 850 W/m² -
1788200538 33.33° C 57% 1020.1 hPa 0 mm - 92 W/m² -
1788200238 33.89° C 55% 1020.1 hPa 0 mm - 152 W/m² -

* Rain latest hour (hover to see other rain measurements)
** Current wind speed in m/s (hover to see current wind gust speed)